DW2659 Weather Reports


Display with metric or nautical units.
time (UTC)temp
F
wind
direction
speed
MPH
gust
MPH
rain 1hr
in
rain 24hr
in
rain mn
in
humidity
%
barometer
mb
20260510055904 58 169 0.0 1.0 0.00 0.00 0.00 85 1013.5
20260510054903 59 169 0.0 0.0 0.00 0.00 0.00 85 1013.5
20260510054404 59 169 0.0 0.0 0.00 0.00 0.00 84 1013.6
20260510053403 59 169 0.0 0.0 0.00 0.00 0.00 84 1013.6
20260510052903 59 169 0.0 0.0 0.00 0.00 0.00 84 1013.5
20260510052404 60 169 0.0 0.0 0.00 0.00 0.00 84 1013.5
20260510051903 60 169 0.0 0.0 0.00 0.00 0.00 84 1013.5
20260510051403 60 169 0.0 1.0 0.00 0.00 0.00 83 1014.1
20260510050903 60 169 0.0 1.0 0.00 0.00 0.00 83 1014.1
20260510050404 61 169 0.0 1.0 0.00 0.00 0.00 83 1014.1
20260510045903 61 213 0.0 0.0 0.00 0.00 0.00 83 1014.1
20260510045403 61 213 0.0 0.0 0.00 0.00 0.00 83 1014.1
20260510044404 61 114 0.0 0.0 0.00 0.00 0.00 82 1013.8
20260510043903 61 114 0.0 1.0 0.00 0.00 0.00 82 1013.8
20260510043404 61 114 0.0 0.0 0.00 0.00 0.00 82 1013.8
20260510042903 62 114 0.0 0.0 0.00 0.00 0.00 81 1013.9
20260510041903 62 114 0.0 1.0 0.00 0.00 0.00 81 1013.8
20260510041403 62 114 0.0 1.0 0.00 0.00 0.00 81 1013.7
20260510040905 63 114 1.0 3.0 0.00 0.00 0.00 80 1013.7
20260510040403 63 242 0.0 2.0 0.00 0.00 0.00 80 1013.7
20260510035903 63 267 0.0 2.0 0.00 0.00 0.00 81 1013.7
20260510035404 63 263 1.0 2.0 0.00 0.00 0.00 82 1013.7
20260510034904 63 250 0.0 1.0 0.00 0.00 0.00 82 1013.7
20260510033904 63 250 0.0 0.0 0.00 0.00 0.00 81 1013.2
20260510033405 63 250 0.0 0.0 0.00 0.00 0.00 80 1013.2
20260510032903 64 250 0.0 2.0 0.00 0.00 0.00 79 1013.2
20260510032403 64 250 1.0 2.0 0.00 0.00 0.00 79 1013.2
20260510031904 65 243 1.0 2.0 0.00 0.00 0.00 78 1013.2
20260510031403 65 243 1.0 2.0 0.00 0.00 0.00 77 1013.4
20260510030903 65 269 0.0 2.0 0.00 0.00 0.00 77 1013.4
20260510030405 65 276 1.0 3.0 0.00 0.00 0.00 77 1013.4
20260510025903 65 250 1.0 2.0 0.00 0.00 0.00 77 1013.2
20260510025403 65 238 1.0 3.0 0.00 0.00 0.00 77 1013.2
20260510024904 65 241 1.0 2.0 0.00 0.00 0.00 77 1013.2
20260510023903 66 262 1.0 2.0 0.00 0.00 0.00 76 1013.2
20260510023405 66 239 1.0 2.0 0.00 0.00 0.00 76 1013.1
20260510022903 66 254 1.0 2.0 0.00 0.00 0.00 76 1013.0
20260510022403 66 222 1.0 3.0 0.00 0.00 0.00 76 1013.0
20260510021904 66 250 1.0 2.0 0.00 0.00 0.00 77 1013.0
20260510021404 66 215 1.0 2.0 0.00 0.00 0.00 77 1012.8
20260510020904 65 250 0.0 1.0 0.00 0.00 0.00 77 1012.8
20260510015905 65 202 0.0 1.0 0.00 0.00 0.00 78 1012.7
20260510014903 65 192 0.0 2.0 0.00 0.00 0.00 78 1012.7
20260510014404 65 244 0.0 0.0 0.00 0.00 0.00 78 1012.4
20260510013903 65 244 0.0 0.0 0.00 0.00 0.00 78 1012.4
20260510013404 65 244 0.0 0.0 0.00 0.00 0.00 78 1012.4
20260510012904 65 244 0.0 0.0 0.00 0.00 0.00 78 1012.2
20260510012403 65 244 0.0 0.0 0.00 0.00 0.00 78 1012.2
20260510011904 66 244 0.0 0.0 0.00 0.00 0.00 77 1012.2
20260510011404 66 244 0.0 0.0 0.00 0.00 0.00 77 1012.1
20260510010404 66 244 0.0 0.0 0.00 0.00 0.00 76 1012.1
20260510005904 67 244 0.0 0.0 0.00 0.00 0.00 76 1011.8
20260510005404 67 244 0.0 0.0 0.00 0.00 0.00 75 1011.8
20260510004404 68 244 0.0 0.0 0.00 0.00 0.00 75 1011.8
20260510003904 68 244 0.0 0.0 0.00 0.00 0.00 74 1011.8
20260510002904 68 244 0.0 1.0 0.00 0.00 0.00 74 1011.6
20260510002403 69 244 0.0 0.0 0.00 0.00 0.00 73 1011.6
20260510001904 69 244 0.0 0.0 0.00 0.00 0.00 73 1011.6
20260510001404 69 244 0.0 0.0 0.00 0.00 0.00 73 1011.2
20260510000903 69 244 0.0 0.0 0.00 0.00 0.00 72 1011.2
20260510000404 70 244 0.0 1.0 0.00 0.00 0.00 72 1011.2
20260509235905 70 244 0.0 1.0 0.00 0.00 0.00 71 1011.3
20260509235403 71 244 0.0 0.0 0.00 0.00 0.00 70 1011.3
20260509234903 71 244 0.0 2.0 0.00 0.00 0.00 69 1011.3
20260509234405 71 244 0.0 1.0 0.00 0.00 0.00 68 1011.2
20260509233903 71 244 0.0 1.0 0.00 0.00 0.00 69 1011.2
20260509233403 71 244 0.0 1.0 0.00 0.00 0.00 69 1011.2
20260509232904 71 244 0.0 2.0 0.00 0.00 0.00 68 1011.1
20260509232403 71 231 1.0 2.0 0.00 0.00 0.00 68 1011.1
20260509231903 71 249 1.0 3.0 0.00 0.00 0.00 68 1011.1
20260509231404 72 204 2.0 5.0 0.00 0.00 0.00 68 1011.1
20260509230905 72 217 0.0 3.0 0.00 0.00 0.00 68 1011.0
20260509230404 72 220 1.0 3.0 0.00 0.00 0.00 67 1011.0
20260509225904 72 263 1.0 3.0 0.00 0.00 0.00 67 1011.0
20260509225404 72 252 1.0 3.0 0.00 0.00 0.00 66 1011.0
20260509224404 72 263 1.0 5.0 0.00 0.00 0.00 66 1011.1
20260509223904 72 171 4.0 6.0 0.00 0.00 0.00 65 1010.9
20260509223403 73 216 2.0 3.0 0.00 0.00 0.00 66 1010.9
20260509222904 72 126 2.0 5.0 0.00 0.00 0.00 66 1010.9
20260509222405 72 156 2.0 5.0 0.00 0.00 0.00 66 1010.9
20260509221903 72 242 3.0 7.0 0.00 0.00 0.00 65 1010.9
20260509220904 73 162 5.0 8.0 0.00 0.00 0.00 65 1010.7
20260509220404 73 126 3.0 6.0 0.00 0.00 0.00 65 1010.7
20260509215904 73 169 3.0 6.0 0.00 0.00 0.00 64 1010.6
20260509215405 73 146 2.0 6.0 0.00 0.00 0.00 65 1010.6
20260509214904 73 231 1.0 3.0 0.00 0.00 0.00 65 1010.6
20260509214403 72 139 2.0 5.0 0.00 0.00 0.00 65 1010.7
20260509213905 72 159 3.0 5.0 0.00 0.00 0.00 66 1010.7
20260509213404 72 248 2.0 6.0 0.00 0.00 0.00 66 1010.7
20260509212903 72 262 3.0 5.0 0.00 0.00 0.00 65 1010.7
20260509212405 72 272 2.0 5.0 0.00 0.00 0.00 64 1010.7
20260509211903 72 124 3.0 6.0 0.00 0.00 0.00 65 1010.7
20260509211404 72 117 2.0 6.0 0.00 0.00 0.00 66 1010.7
20260509210904 72 177 4.0 7.0 0.00 0.00 0.00 66 1010.7
20260509210403 72 154 4.0 7.0 0.00 0.00 0.00 65 1010.1
20260509205903 72 108 5.0 6.0 0.00 0.00 0.00 66 1010.1
20260509205403 72 244 5.0 7.0 0.00 0.00 0.00 65 1010.1
20260509204403 72 185 3.0 6.0 0.00 0.00 0.00 65 1010.1
20260509203903 72 172 3.0 8.0 0.00 0.00 0.00 64 1010.1
20260509203405 72 140 3.0 6.0 0.00 0.00 0.00 65 1010.1
20260509202904 72 220 3.0 6.0 0.00 0.00 0.00 65 1010.1
20260509202404 73 107 2.0 5.0 0.00 0.00 0.00 64 1010.1
20260509201903 73 164 3.0 6.0 0.00 0.00 0.00 64 1010.1
20260509201405 73 131 3.0 6.0 0.00 0.00 0.00 64 1010.1
20260509200904 72 180 3.0 6.0 0.00 0.00 0.00 64 1010.1
20260509200404 73 163 4.0 7.0 0.00 0.00 0.00 65 1010.1
20260509195905 73 194 5.0 9.0 0.00 0.00 0.00 63 1010.8
20260509195404 73 156 4.0 8.0 0.00 0.00 0.00 63 1010.8
20260509194903 73 108 2.0 7.0 0.00 0.00 0.00 64 1010.8
20260509193905 72 236 2.0 8.0 0.00 0.00 0.00 64 1010.8
20260509193403 72 156 2.0 5.0 0.00 0.00 0.00 63 1010.8
20260509192903 72 246 3.0 6.0 0.00 0.00 0.00 62 1010.8
20260509192404 73 182 1.0 5.0 0.00 0.00 0.00 63 1010.8
20260509191904 72 133 3.0 7.0 0.00 0.00 0.00 62 1010.8
20260509190905 73 253 3.0 8.0 0.00 0.00 0.00 61 1010.9
20260509190404 73 131 3.0 6.0 0.00 0.00 0.00 60 1010.9
20260509185404 73 113 1.0 3.0 0.00 0.00 0.00 59 1011.1
20260509184904 73 232 2.0 5.0 0.00 0.00 0.00 60 1011.1
20260509184403 72 215 2.0 5.0 0.00 0.00 0.00 59 1011.2
20260509183905 72 237 2.0 5.0 0.00 0.00 0.00 60 1011.2
20260509183404 73 233 2.0 5.0 0.00 0.00 0.00 57 1011.2
20260509182903 73 95 1.0 3.0 0.00 0.00 0.00 57 1011.2
20260509182404 73 187 2.0 3.0 0.00 0.00 0.00 59 1011.2
20260509181404 72 221 2.0 6.0 0.00 0.00 0.00 58 1011.2
20260509180404 72 136 2.0 6.0 0.00 0.00 0.00 60 1010.7
20260509175904 72 142 3.0 5.0 0.00 0.00 0.00 62 1010.7
20260509175405 72 243 3.0 7.0 0.00 0.00 0.00 56 1010.7
20260509174904 73 348 2.0 6.0 0.00 0.00 0.00 56 1010.7
20260509173403 73 130 4.0 6.0 0.00 0.00 0.00 58 1010.9
20260509172405 74 90 2.0 3.0 0.00 0.00 0.00 54 1011.4
20260509171903 75 65 1.0 2.0 0.00 0.00 0.00 53 1011.4
20260509171404 73 335 1.0 3.0 0.00 0.00 0.00 58 1011.5
20260509170403 73 231 2.0 7.0 0.00 0.00 0.00 56 1011.5
20260509165904 73 100 3.0 6.0 0.00 0.00 0.00 59 1011.8
20260509164904 73 127 2.0 5.0 0.00 0.00 0.00 60 1011.8
20260509164403 72 148 3.0 6.0 0.00 0.00 0.00 59 1012.0
20260509163905 72 178 4.0 8.0 0.00 0.00 0.00 60 1012.0
20260509162903 71 180 2.0 3.0 0.00 0.00 0.00 64 1011.9
20260509162404 70 248 2.0 3.0 0.00 0.00 0.00 63 1011.9
20260509161905 69 104 3.0 5.0 0.00 0.00 0.00 64 1011.8
20260509161404 69 188 2.0 7.0 0.00 0.00 0.00 65 1011.9
20260509160904 69 166 5.0 7.0 0.00 0.00 0.00 66 1011.9
20260509160405 68 212 3.0 9.0 0.00 0.00 0.00 67 1012.2
20260509155904 68 253 2.0 7.0 0.00 0.00 0.00 66 1012.2
20260509155404 67 115 3.0 6.0 0.00 0.00 0.00 69 1012.2
20260509154905 67 201 2.0 3.0 0.00 0.00 0.00 68 1012.2
20260509154404 67 315 1.0 3.0 0.00 0.00 0.00 67 1012.5
20260509153904 67 229 2.0 5.0 0.00 0.00 0.00 69 1012.5
20260509153404 66 235 1.0 5.0 0.00 0.00 0.00 69 1012.5
20260509152905 66 246 3.0 6.0 0.00 0.00 0.00 68 1012.5
20260509152404 66 223 3.0 8.0 0.00 0.00 0.00 69 1012.5
20260509151903 66 200 3.0 6.0 0.00 0.00 0.00 70 1012.5
20260509151404 65 145 3.0 6.0 0.00 0.00 0.00 71 1012.5
20260509150905 65 179 4.0 6.0 0.00 0.00 0.00 71 1012.5
20260509145405 65 213 2.0 6.0 0.00 0.00 0.00 71 1012.4
20260509144404 65 242 2.0 3.0 0.00 0.00 0.00 74 1012.3
20260509143905 65 247 3.0 6.0 0.00 0.00 0.00 74 1012.3
20260509143404 64 177 3.0 6.0 0.00 0.00 0.00 75 1012.1
20260509142904 64 178 2.0 5.0 0.00 0.00 0.00 76 1012.1
20260509141404 63 173 2.0 5.0 0.00 0.00 0.00 76 1011.3
20260509140906 63 217 3.0 5.0 0.00 0.00 0.00 76 1011.3
20260509140404 63 244 1.0 3.0 0.00 0.00 0.00 76 1011.3
20260509135905 62 173 1.0 2.0 0.00 0.00 0.00 77 1011.3
20260509134904 62 102 2.0 5.0 0.00 0.00 0.00 78 1011.3
20260509133905 61 148 2.0 3.0 0.00 0.00 0.00 79 1011.6
20260509133404 60 143 1.0 3.0 0.00 0.00 0.00 80 1011.5
20260509132904 60 206 0.0 2.0 0.00 0.00 0.00 80 1011.6
20260509132405 60 236 1.0 3.0 0.00 0.00 0.00 80 1011.6
20260509131904 59 233 1.0 3.0 0.00 0.00 0.00 80 1011.6
20260509131404 59 195 1.0 3.0 0.00 0.00 0.00 81 1011.8
20260509130404 59 234 0.0 2.0 0.00 0.00 0.00 82 1011.8
20260509125904 59 218 1.0 2.0 0.00 0.00 0.00 82 1011.7
20260509125409 58 175 0.0 2.0 0.00 0.00 0.00 83 1012.0
20260509124903 58 175 1.0 2.0 0.00 0.00 0.00 83 1012.0
20260509123904 58 175 0.0 0.0 0.00 0.00 0.00 84 1012.0
20260509123402 58 175 1.0 2.0 0.00 0.00 0.00 84 1011.9
20260509122903 58 175 1.0 2.0 0.00 0.00 0.00 85 1011.5
20260509121903 57 249 0.0 1.0 0.00 0.00 0.00 86 1011.5
20260509121402 57 249 0.0 1.0 0.00 0.00 0.00 87 1011.5
20260509120903 57 249 0.0 0.0 0.00 0.00 0.00 87 1011.5
20260509120402 57 249 0.0 0.0 0.00 0.00 0.00 87 1011.5
20260509115903 57 249 0.0 0.0 0.00 0.00 0.00 87 1011.3
20260509115404 56 249 0.0 0.0 0.00 0.00 0.00 87 1011.3
20260509114902 56 249 0.0 0.0 0.00 0.00 0.00 87 1011.3
20260509114402 56 249 0.0 0.0 0.00 0.00 0.00 87 1011.5
20260509113903 56 249 0.0 0.0 0.00 0.00 0.00 86 1011.5
20260509113404 56 249 0.0 0.0 0.00 0.00 0.00 86 1011.5
20260509112903 56 249 0.0 0.0 0.00 0.00 0.00 86 1011.5
20260509112403 56 249 0.0 0.0 0.00 0.00 0.00 86 1011.2
20260509111903 56 249 0.0 0.0 0.00 0.00 0.00 86 1011.2
20260509111403 56 249 0.0 0.0 0.00 0.00 0.00 86 1011.2
20260509110902 56 249 0.0 0.0 0.00 0.00 0.00 86 1011.2
20260509110404 56 249 0.0 0.0 0.00 0.00 0.00 86 1011.2
20260509105403 55 249 0.0 1.0 0.00 0.00 0.00 86 1011.2
20260509104902 55 249 0.0 1.0 0.00 0.00 0.00 87 1011.2
20260509104404 55 249 0.0 0.0 0.00 0.00 0.00 87 1011.4
20260509103902 55 249 0.0 1.0 0.00 0.00 0.00 87 1011.4
20260509102904 55 249 0.0 0.0 0.00 0.00 0.00 87 1011.2
20260509102403 55 249 0.0 1.0 0.00 0.00 0.00 87 1011.2
20260509101903 55 249 0.0 1.0 0.00 0.00 0.00 87 1011.2
20260509101403 55 249 0.0 2.0 0.00 0.00 0.00 86 1011.2
20260509100903 55 249 0.0 1.0 0.00 0.00 0.00 86 1011.2
20260509100403 55 249 0.0 0.0 0.00 0.00 0.00 86 1011.2
20260509095904 55 249 0.0 0.0 0.00 0.00 0.00 86 1011.2
20260509095403 55 249 0.0 0.0 0.00 0.00 0.00 86 1011.2
20260509094903 55 249 0.0 0.0 0.00 0.00 0.00 86 1011.3
20260509094403 55 249 0.0 0.0 0.00 0.00 0.00 87 1011.3
20260509093903 55 249 0.0 0.0 0.00 0.00 0.00 87 1011.3
20260509093402 55 249 0.0 1.0 0.00 0.00 0.00 87 1011.3
20260509092903 55 249 0.0 1.0 0.00 0.00 0.00 87 1011.4
20260509092404 55 249 0.0 0.0 0.00 0.00 0.00 87 1011.7
20260509091903 55 249 0.0 1.0 0.00 0.00 0.00 87 1011.7
20260509091402 55 249 0.0 0.0 0.00 0.00 0.00 87 1011.7
20260509090903 55 249 0.0 0.0 0.00 0.00 0.00 87 1011.7
20260509090404 55 249 0.0 0.0 0.00 0.00 0.00 87 1011.7
20260509085902 55 249 0.0 1.0 0.00 0.00 0.00 87 1011.6
20260509085402 55 249 0.0 2.0 0.00 0.00 0.00 87 1011.6
20260509084903 54 249 0.0 0.0 0.00 0.00 0.00 87 1011.6
20260509084404 54 249 0.0 0.0 0.00 0.00 0.00 87 1011.7
20260509083403 54 249 0.0 0.0 0.00 0.00 0.00 87 1011.7
20260509082404 54 249 0.0 0.0 0.00 0.00 0.00 87 1011.2
20260509081903 53 249 0.0 0.0 0.00 0.00 0.00 87 1011.2
20260509081402 53 249 0.0 0.0 0.00 0.00 0.00 87 1011.3
20260509080904 53 249 0.0 0.0 0.00 0.00 0.00 87 1011.3
20260509080403 53 249 0.0 0.0 0.00 0.00 0.00 87 1011.3
20260509075902 53 249 0.0 0.0 0.00 0.00 0.00 86 1011.2
20260509075403 53 249 0.0 0.0 0.00 0.00 0.00 87 1011.2
20260509074903 53 249 0.0 0.0 0.00 0.00 0.00 87 1011.2
20260509073903 53 249 0.0 1.0 0.00 0.00 0.00 87 1011.1
20260509073404 52 249 0.0 1.0 0.00 0.00 0.00 87 1011.1
20260509072903 52 249 0.0 0.0 0.00 0.00 0.00 87 1011.4
20260509072402 52 249 0.0 0.0 0.00 0.00 0.00 86 1011.4
20260509071904 52 249 0.0 0.0 0.00 0.00 0.00 86 1011.4
20260509070903 52 249 0.0 0.0 0.00 0.00 0.00 86 1011.4
20260509065903 52 249 0.0 0.0 0.00 0.00 0.00 85 1011.8
20260509064402 52 249 0.0 0.0 0.00 0.00 0.00 86 1011.8
20260509063903 52 249 0.0 1.0 0.00 0.00 0.00 86 1011.8
20260509063403 52 249 0.0 1.0 0.00 0.00 0.00 86 1011.8
20260509062904 51 249 0.0 0.0 0.00 0.00 0.00 85 1011.9
20260509062403 51 249 0.0 0.0 0.00 0.00 0.00 85 1012.4
20260509061903 51 249 0.0 0.0 0.00 0.00 0.00 85 1012.4
20260509061404 51 249 0.0 0.0 0.00 0.00 0.00 85 1012.4
20260509060903 51 249 0.0 0.0 0.00 0.00 0.00 85 1012.4
20260509060403 52 249 0.0 0.0 0.00 0.00 0.00 85 1012.4